Time,TemperatureF,DewpointF,PressureIn,WindDirection,WindDirectionDegrees,WindSpeedMPH,WindSpeedGustMPH,Humidity,HourlyPrecipIn,Conditions,Clouds,dailyrainin,SoftwareType,DateUTC
2013-04-05 00:01:00,27.0,25.0,-100.00,NW,325,7.0,13.0,94,0.00,,,0.00,,2013-04-05 05:01:00,
2013-04-05 00:21:00,27.0,25.0,-100.00,NNW,335,7.0,11.0,95,0.00,,,0.00,,2013-04-05 05:21:00,
2013-04-05 00:31:00,26.0,25.0,-100.00,NW,325,8.0,12.0,95,0.00,,,0.00,,2013-04-05 05:31:00,
2013-04-05 00:41:00,26.0,25.0,-100.00,NNW,330,8.0,12.0,95,0.00,,,0.00,,2013-04-05 05:41:00,
2013-04-05 00:51:00,26.0,25.0,-100.00,NW,320,9.0,12.0,96,0.00,,,0.00,,2013-04-05 05:51:00,
2013-04-05 01:01:00,26.0,25.0,-100.00,NNW,335,8.0,12.0,96,0.00,,,0.00,,2013-04-05 06:01:00,
2013-04-05 01:11:00,26.0,25.0,-100.00,NW,325,7.0,11.0,97,0.00,,,0.00,,2013-04-05 06:11:00,
2013-04-05 01:21:00,26.0,25.0,-100.00,NNW,330,7.0,10.0,98,0.00,,,0.00,,2013-04-05 06:21:00,
2013-04-05 01:41:00,26.0,25.0,-100.00,NNW,330,7.0,10.0,98,0.00,,,0.00,,2013-04-05 06:41:00,
2013-04-05 01:51:00,26.0,25.0,-100.00,NNW,335,9.0,10.0,99,0.00,,,0.00,,2013-04-05 06:51:00,
2013-04-05 02:01:00,26.0,25.0,-100.00,NNW,335,7.0,10.0,99,0.00,,,0.00,,2013-04-05 07:01:00,
2013-04-05 02:11:00,26.0,25.0,-100.00,NNW,340,9.0,11.0,99,0.00,,,0.00,,2013-04-05 07:11:00,
2013-04-05 02:51:00,26.0,25.0,-100.00,NNW,330,7.0,11.0,99,0.00,,,0.00,,2013-04-05 07:51:00,
2013-04-05 03:01:00,26.0,25.0,-100.00,NNW,335,8.0,11.0,99,0.00,,,0.00,,2013-04-05 08:01:00,
2013-04-05 03:11:00,25.0,25.0,-100.00,NNW,340,6.0,9.0,99,0.00,,,0.00,,2013-04-05 08:11:00,
2013-04-05 03:21:00,26.0,25.0,-100.00,NW,325,7.0,9.0,99,0.00,,,0.00,,2013-04-05 08:21:00,
2013-04-05 03:31:00,26.0,25.0,-100.00,NNW,345,6.0,8.0,99,0.00,,,0.00,,2013-04-05 08:31:00,
2013-04-05 04:31:00,27.0,27.0,-100.00,North,10,7.0,9.0,99,0.00,,,0.00,,2013-04-05 09:31:00,
2013-04-05 05:01:00,26.0,25.0,-100.00,North,355,4.0,7.0,99,0.00,,,0.00,,2013-04-05 10:01:00,
2013-04-05 05:11:00,26.0,25.0,-100.00,North,5,4.0,6.0,99,0.00,,,0.00,,2013-04-05 10:11:00,
2013-04-05 05:21:00,26.0,25.0,-100.00,North,5,6.0,7.0,99,0.00,,,0.00,,2013-04-05 10:21:00,
2013-04-05 05:31:00,26.0,25.0,-100.00,NNE,15,6.0,6.0,99,0.00,,,0.00,,2013-04-05 10:31:00,
2013-04-05 05:41:00,26.0,25.0,-100.00,NNE,20,5.0,7.0,99,0.00,,,0.00,,2013-04-05 10:41:00,
2013-04-05 05:51:00,26.0,25.0,-100.00,NNE,30,4.0,6.0,99,0.00,,,0.00,,2013-04-05 10:51:00,
2013-04-05 06:21:00,27.0,27.0,-100.00,NE,50,4.0,5.0,99,0.00,,,0.00,,2013-04-05 11:21:00,
2013-04-05 06:31:00,27.0,27.0,-100.00,ENE,65,3.0,5.0,99,0.00,,,0.00,,2013-04-05 11:31:00,
2013-04-05 06:41:00,27.0,27.0,-100.00,ENE,65,4.0,5.0,99,0.00,,,0.00,,2013-04-05 11:41:00,
2013-04-05 06:51:00,27.0,27.0,-100.00,ENE,75,5.0,7.0,99,0.00,,,0.00,,2013-04-05 11:51:00,
2013-04-05 07:01:00,28.0,27.0,-100.00,East,85,7.0,8.0,99,0.00,,,0.00,,2013-04-05 12:01:00,
2013-04-05 07:21:00,29.0,28.0,-100.00,ESE,105,7.0,12.0,95,0.00,,,0.00,,2013-04-05 12:21:00,
2013-04-05 07:31:00,30.0,27.0,-100.00,ESE,110,11.0,15.0,91,0.00,,,0.00,,2013-04-05 12:31:00,
2013-04-05 07:41:00,30.0,27.0,-100.00,ESE,105,9.0,14.0,88,0.00,,,0.00,,2013-04-05 12:41:00,
2013-04-05 07:51:00,30.0,27.0,-100.00,ESE,105,11.0,16.0,85,0.00,,,0.00,,2013-04-05 12:51:00,
2013-04-05 08:01:00,30.0,25.0,-100.00,ESE,110,12.0,16.0,82,0.00,,,0.00,,2013-04-05 13:01:00,
2013-04-05 08:21:00,30.0,25.0,-100.00,ESE,115,12.0,16.0,80,0.00,,,0.00,,2013-04-05 13:21:00,
2013-04-05 08:31:00,30.0,25.0,-100.00,ESE,115,12.0,16.0,80,0.00,,,0.00,,2013-04-05 13:31:00,
2013-04-05 08:41:00,31.0,25.0,-100.00,SE,125,10.0,14.0,80,0.00,,,0.00,,2013-04-05 13:41:00,
2013-04-05 08:51:00,31.0,25.0,-100.00,SE,135,12.0,15.0,78,0.00,,,0.00,,2013-04-05 13:51:00,
2013-04-05 09:01:00,31.0,25.0,-100.00,SE,130,11.0,15.0,77,0.00,,,0.00,,2013-04-05 14:01:00,
2013-04-05 09:11:00,32.0,25.0,-100.00,SE,130,11.0,14.0,77,0.00,,,0.00,,2013-04-05 14:11:00,
2013-04-05 09:21:00,32.0,25.0,-100.00,ESE,110,11.0,16.0,74,0.00,,,0.00,,2013-04-05 14:21:00,
2013-04-05 09:31:00,32.0,25.0,-100.00,SE,125,11.0,17.0,72,0.00,,,0.00,,2013-04-05 14:31:00,
2013-04-05 09:41:00,33.0,25.0,-100.00,SE,135,12.0,15.0,72,0.00,,,0.00,,2013-04-05 14:41:00,
2013-04-05 09:51:00,33.0,25.0,-100.00,SE,125,13.0,16.0,70,0.00,,,0.00,,2013-04-05 14:51:00,
2013-04-05 10:01:00,33.0,25.0,-100.00,SE,125,12.0,17.0,72,0.00,,,0.00,,2013-04-05 15:01:00,
2013-04-05 10:21:00,35.0,25.0,-100.00,SE,135,18.0,21.0,69,0.00,,,0.00,,2013-04-05 15:21:00,
2013-04-05 10:31:00,34.0,25.0,-100.00,SE,130,18.0,21.0,69,0.00,,,0.00,,2013-04-05 15:31:00,
2013-04-05 10:41:00,35.0,25.0,-100.00,SE,125,16.0,23.0,69,0.00,,,0.00,,2013-04-05 15:41:00,
2013-04-05 10:51:00,35.0,25.0,-100.00,SE,125,19.0,24.0,67,0.00,,,0.00,,2013-04-05 15:51:00,
2013-04-05 11:01:00,36.0,27.0,-100.00,SE,130,18.0,24.0,65,0.00,,,0.00,,2013-04-05 16:01:00,
2013-04-05 11:11:00,37.0,27.0,-100.00,SE,125,19.0,23.0,63,0.00,,,0.00,,2013-04-05 16:11:00,
2013-04-05 11:21:00,38.0,27.0,-100.00,SE,135,16.0,23.0,63,0.00,,,0.00,,2013-04-05 16:21:00,
2013-04-05 11:31:00,39.0,27.0,-100.00,SE,135,16.0,22.0,61,0.00,,,0.00,,2013-04-05 16:31:00,
2013-04-05 11:41:00,39.0,27.0,-100.00,SE,140,15.0,24.0,61,0.00,,,0.00,,2013-04-05 16:41:00,
2013-04-05 11:51:00,38.0,27.0,-100.00,SSE,150,15.0,21.0,60,0.00,,,0.00,,2013-04-05 16:51:00,
2013-04-05 12:01:00,39.0,27.0,-100.00,SE,135,17.0,21.0,58,0.00,,,0.00,,2013-04-05 17:01:00,
2013-04-05 12:21:00,41.0,27.0,-100.00,SE,130,17.0,20.0,56,0.00,,,0.00,,2013-04-05 17:21:00,
2013-04-05 12:31:00,41.0,27.0,-100.00,ESE,120,17.0,24.0,57,0.00,,,0.00,,2013-04-05 17:31:00,
2013-04-05 12:40:00,42.0,27.0,-100.00,SE,130,20.0,24.0,56,0.00,,,0.00,,2013-04-05 17:40:00,
2013-04-05 12:50:00,43.0,28.0,-100.00,SE,135,21.0,26.0,56,0.00,,,0.00,,2013-04-05 17:50:00,
2013-04-05 13:00:00,43.0,28.0,-100.00,SE,140,24.0,30.0,55,0.00,,,0.00,,2013-04-05 18:00:00,
2013-04-05 13:10:00,43.0,28.0,-100.00,ESE,115,17.0,30.0,54,0.00,,,0.00,,2013-04-05 18:10:00,
2013-04-05 13:20:00,42.0,27.0,-100.00,SE,135,24.0,29.0,52,0.00,,,0.00,,2013-04-05 18:20:00,
2013-04-05 13:30:00,42.0,27.0,-100.00,SE,135,21.0,27.0,53,0.00,,,0.00,,2013-04-05 18:30:00,
2013-04-05 13:40:00,42.0,27.0,-100.00,SE,135,19.0,28.0,53,0.00,,,0.00,,2013-04-05 18:40:00,
2013-04-05 13:50:00,43.0,27.0,-100.00,SE,135,23.0,27.0,53,0.00,,,0.00,,2013-04-05 18:50:00,
2013-04-05 14:00:00,43.0,27.0,-100.00,SE,135,23.0,28.0,53,0.00,,,0.00,,2013-04-05 19:00:00,
2013-04-05 14:20:00,44.0,28.0,-100.00,SE,130,26.0,30.0,52,0.00,,,0.00,,2013-04-05 19:20:00,
2013-04-05 14:30:00,44.0,28.0,-100.00,SE,140,22.0,31.0,54,0.00,,,0.00,,2013-04-05 19:30:00,
2013-04-05 14:40:00,44.0,28.0,-100.00,SE,135,27.0,32.0,53,0.00,,,0.00,,2013-04-05 19:40:00,
2013-04-05 14:50:00,45.0,30.0,-100.00,SE,140,23.0,35.0,55,0.00,,,0.00,,2013-04-05 19:50:00,
2013-04-05 15:00:00,44.0,28.0,-100.00,SE,135,26.0,32.0,54,0.00,,,0.00,,2013-04-05 20:00:00,
2013-04-05 15:10:00,44.0,28.0,-100.00,SE,130,29.0,35.0,56,0.00,,,0.00,,2013-04-05 20:10:00,
2013-04-05 15:20:00,44.0,30.0,-100.00,SE,135,29.0,35.0,57,0.00,,,0.00,,2013-04-05 20:20:00,
2013-04-05 15:30:00,44.0,30.0,-100.00,SE,135,24.0,34.0,58,0.00,,,0.00,,2013-04-05 20:30:00,
2013-04-05 15:40:00,44.0,30.0,-100.00,SE,125,25.0,34.0,57,0.00,,,0.00,,2013-04-05 20:40:00,
2013-04-05 15:50:00,44.0,30.0,-100.00,SE,135,26.0,31.0,58,0.00,,,0.00,,2013-04-05 20:50:00,
2013-04-05 16:00:00,44.0,30.0,-100.00,SE,135,32.0,37.0,58,0.00,,,0.00,,2013-04-05 21:00:00,
2013-04-05 16:20:00,44.0,30.0,-100.00,SE,135,30.0,42.0,60,0.00,,,0.00,,2013-04-05 21:20:00,
2013-04-05 16:30:00,44.0,30.0,-100.00,SE,140,37.0,42.0,59,0.00,,,0.00,,2013-04-05 21:30:00,
2013-04-05 16:40:00,44.0,32.0,-100.00,SE,140,26.0,39.0,60,0.00,,,0.00,,2013-04-05 21:40:00,
2013-04-05 17:01:00,45.0,32.0,-100.00,SE,140,18.0,34.0,60,0.00,,,0.00,,2013-04-05 22:01:00,
2013-04-05 17:10:00,45.0,32.0,-100.00,SE,135,23.0,27.0,60,0.00,,,0.00,,2013-04-05 22:10:00,
2013-04-05 17:20:00,45.0,32.0,-100.00,SE,135,23.0,30.0,61,0.00,,,0.00,,2013-04-05 22:20:00,
2013-04-05 17:30:00,45.0,32.0,-100.00,SE,130,24.0,28.0,60,0.00,,,0.00,,2013-04-05 22:30:00,
2013-04-05 17:40:00,45.0,32.0,-100.00,SE,125,21.0,28.0,61,0.00,,,0.00,,2013-04-05 22:40:00,
2013-04-05 17:50:00,45.0,32.0,-100.00,SE,125,19.0,26.0,63,0.00,,,0.00,,2013-04-05 22:50:00,
2013-04-05 18:00:00,45.0,32.0,-100.00,ESE,120,16.0,27.0,61,0.00,,,0.00,,2013-04-05 23:00:00,
2013-04-05 18:20:00,44.0,32.0,-100.00,ESE,115,16.0,21.0,63,0.00,,,0.00,,2013-04-05 23:20:00,
2013-04-05 18:30:00,44.0,34.0,-100.00,ESE,110,17.0,22.0,64,0.00,,,0.00,,2013-04-05 23:30:00,
2013-04-05 18:40:00,44.0,32.0,-100.00,ESE,115,16.0,23.0,65,0.00,,,0.00,,2013-04-05 23:40:00,
2013-04-05 18:50:00,43.0,32.0,-100.00,ESE,110,18.0,23.0,66,0.00,,,0.00,,2013-04-05 23:50:00,
2013-04-05 19:00:00,43.0,32.0,-100.00,ESE,105,15.0,21.0,67,0.00,,,0.00,,2013-04-06 00:00:00,
2013-04-05 19:10:00,42.0,34.0,-100.00,ESE,110,16.0,20.0,68,0.00,,,0.00,,2013-04-06 00:10:00,
2013-04-05 19:20:00,42.0,34.0,-100.00,ESE,105,16.0,19.0,70,0.00,,,0.00,,2013-04-06 00:20:00,
2013-04-05 19:30:00,39.0,34.0,-100.00,ESE,110,17.0,21.0,82,0.00,,,0.00,,2013-04-06 00:30:00,
2013-04-05 19:40:00,39.0,36.0,-100.00,ESE,110,18.0,23.0,86,0.00,,,0.00,,2013-04-06 00:40:00,
2013-04-05 19:50:00,39.0,36.0,-100.00,ESE,105,16.0,20.0,85,0.00,,,0.00,,2013-04-06 00:50:00,
2013-04-05 20:00:00,39.0,36.0,-100.00,ESE,105,17.0,21.0,86,0.00,,,0.00,,2013-04-06 01:00:00,
2013-04-05 20:20:00,38.0,36.0,-100.00,ESE,105,16.0,20.0,90,0.00,,,0.00,,2013-04-06 01:20:00,
2013-04-05 20:30:00,37.0,36.0,-100.00,ESE,105,17.0,21.0,92,0.00,,,0.00,,2013-04-06 01:30:00,
2013-04-05 20:40:00,37.0,36.0,-100.00,ESE,105,16.0,21.0,94,0.00,,,0.00,,2013-04-06 01:40:00,
2013-04-05 20:50:00,37.0,36.0,-100.00,ESE,105,16.0,20.0,94,0.00,,,0.00,,2013-04-06 01:50:00,
2013-04-05 21:00:00,38.0,36.0,-100.00,ESE,110,17.0,19.0,93,0.00,,,0.00,,2013-04-06 02:00:00,
2013-04-05 21:10:00,38.0,36.0,-100.00,ESE,115,16.0,19.0,91,0.00,,,0.00,,2013-04-06 02:10:00,
2013-04-05 21:20:00,39.0,36.0,-100.00,ESE,115,16.0,22.0,87,0.00,,,0.00,,2013-04-06 02:20:00,
2013-04-05 21:30:00,40.0,36.0,-100.00,ESE,115,14.0,20.0,84,0.00,,,0.00,,2013-04-06 02:30:00,
2013-04-05 21:40:00,40.0,36.0,-100.00,ESE,120,16.0,22.0,81,0.00,,,0.00,,2013-04-06 02:40:00,
2013-04-05 21:50:00,41.0,34.0,-100.00,ESE,115,21.0,27.0,75,0.00,,,0.00,,2013-04-06 02:50:00,
2013-04-05 22:00:00,42.0,34.0,-100.00,SE,125,22.0,29.0,71,0.00,,,0.00,,2013-04-06 03:00:00,
2013-04-05 22:20:00,41.0,32.0,-100.00,ESE,120,21.0,27.0,71,0.00,,,0.00,,2013-04-06 03:20:00,
2013-04-05 22:30:00,41.0,32.0,-100.00,ESE,120,21.0,27.0,70,0.00,,,0.00,,2013-04-06 03:30:00,
2013-04-05 22:40:00,41.0,32.0,-100.00,ESE,120,19.0,24.0,70,0.00,,,0.00,,2013-04-06 03:40:00,
2013-04-05 22:50:00,42.0,32.0,-100.00,ESE,120,22.0,27.0,68,0.00,,,0.00,,2013-04-06 03:50:00,
2013-04-05 23:00:00,41.0,32.0,-100.00,SE,130,19.0,29.0,69,0.00,,,0.00,,2013-04-06 04:00:00,
2013-04-05 23:10:00,41.0,32.0,-100.00,SE,130,20.0,26.0,70,0.00,,,0.00,,2013-04-06 04:10:00,
2013-04-05 23:20:00,41.0,32.0,-100.00,SE,130,24.0,29.0,70,0.00,,,0.00,,2013-04-06 04:20:00,
2013-04-05 23:30:00,41.0,32.0,-100.00,SE,130,21.0,28.0,70,0.00,,,0.00,,2013-04-06 04:30:00,
2013-04-05 23:40:00,42.0,32.0,-100.00,SE,135,21.0,28.0,69,0.00,,,0.00,,2013-04-06 04:40:00,
2013-04-05 23:50:00,41.0,32.0,-100.00,SE,130,21.0,26.0,71,0.00,,,0.00,,2013-04-06 04:50:00,